Showing default

OPS 5798 (TRANSIT 5B-4), 897

Orbit data source: Space-Track

OPS 5798 (TRANSIT 5B-4), 897 is a payload satellite owned by USN BuWeps (US) in LEO that was launched on Tue, 06 Oct 1964 UTC via a THOR ABLESTAR launch vehicle from the Air Force Western Test Range (AFWTR). Payload-class satellites include a variety of spacecraft equipped with specific instruments for various scientific and technological missions. These include communications satellites like Starlink; space stations such as the ISS; scientific satellites like the Hubble; Earth observation satellites from companies like Planet Labs, Umbra, and HawkEye 360; GPS; miniature CubeSats for education and research; and military/defense satellites.

Loading next visibility...
Identifier
897, 1964-063B
Orbit
LEO
Country
Flag of USUS
Related business
Manufacturer
NAFI
Mission
Defense Navigation
Bus & Motor
TRANSIT 5, Unknown motor
Mass
~54 kg wet, ~54 kg dry
Launch date (UTC)
1964-10-06 (61 years ago)
Launch vehicle
THOR ABLESTAR
Launch site
Air Force Western Test Range (AFWTR)
Object type
Payload
Rocket body
Debris
Shape & HBR
Oct Cyl + 4 Pan + 1 Rod, Unknown HBR
Radar Cross Section
7.565 m², Medium (>0.1 m² and < 1m²)

Expand to show TLE details & history
Last TLE update: 9 hours ago

TLE from 9 hours ago
0 OPS 5798 (TRANSIT 5B-4)
1 00897U 64063B   25258.25662116  .00000086  00000-0  11423-3 0  9992
2 00897  90.2258  69.0509 0017685 256.3618 277.6834 13.53698227  8022
Epoch: 2025-09-15T06:09Z
TLE epoch observation values (Epoch: 2025-09-15T06:09:32.068Z)
Latitude
6.07684°
Longitude
162.22732°
Altitude
1,059.324 km
Speed
7.324 km/s
True Right ascension
16h 36m 17s
True Declination
6° 02' 32"
Sunlit
Object was in daylight at epoch
Visualization orbit readout
Latitude
Unknown
Longitude
Unknown
Altitude
Unknown
Speed
Unknown
Apparent Right ascension
Unknown
Apparent Declination
Unknown
Sunlit
N/A
Visualization observer readout
Local Sidereal Time
07:40:24
Azimuth
Unknown
Elevation
Unknown
Doppler factor
Unknown
Orbital elements
Apogee altitude
1,068.874 km
Perigee altitude
1,042.581 km
Semi-major axis
7,433.864 km
Eccentricity
0.00177
Inclination
90.2258°
RAAN
69.0509°
Arg. of periapsis
256.3618°
True anomaly
277.48251°
Mean anomaly
277.6834°
Eccentric anomaly
277.58296°
Mean motion
3.38627 °/min
Orbital period
106.31 mins
BSTAR
0.00011423
Loading maneuver chart data...
Computing Atmospheric mass density...
Loading historical data...
Loading historical data...
Loading historical data...
Loading historical data...
Loading historical data...
Loading historical data...
Loading historical data...
Other satellites on launch #63 in the year 1964 (1964-10-06 UTC)

Documentation

Showing up to 5 results
|